This is the latest recevied weather packets stored in our database for station/object OK1FPA-13. If no packets are shown the sender has not sent any weather packets the latest 10 day(s).
| Time | Temp. | Humidity | Pressure | Rain* | Wind** | Luminosity | Snow |
|---|---|---|---|---|---|---|---|
| 1777769671 | 9.44° C | 57% | 1017.2 hPa | - | - | - | - |
| 1777769071 | 10° C | 55% | 1017.1 hPa | - | - | - | - |
| 1777768471 | 10° C | 53% | 1017.1 hPa | - | - | - | - |
| 1777767872 | 10.56° C | 53% | 1017.2 hPa | - | - | - | - |
| 1777767271 | 10.56° C | 52% | 1017.2 hPa | - | - | - | - |
| 1777766671 | 11.11° C | 51% | 1017.4 hPa | - | - | - | - |
| 1777766071 | 11.11° C | 50% | 1017.4 hPa | - | - | - | - |
| 1777765471 | 11.11° C | 49% | 1017.5 hPa | - | - | - | - |
| 1777764871 | 11.67° C | 48% | 1017.5 hPa | - | - | - | - |
| 1777764271 | 11.67° C | 47% | 1017.6 hPa | - | - | - | - |
| 1777763671 | 11.67° C | 47% | 1017.6 hPa | - | - | - | - |
| 1777763071 | 11.67° C | 48% | 1017.6 hPa | - | - | - | - |
| 1777762472 | 11.67° C | 47% | 1017.7 hPa | - | - | - | - |
| 1777761871 | 12.22° C | 47% | 1017.8 hPa | - | - | - | - |
| 1777761273 | 11.67° C | 47% | 1017.7 hPa | - | - | - | - |
| 1777760671 | 11.67° C | 48% | 1017.8 hPa | - | - | - | - |
| 1777760071 | 12.22° C | 47% | 1017.8 hPa | - | - | - | - |
| 1777759471 | 12.22° C | 47% | 1017.8 hPa | - | - | - | - |
| 1777758871 | 12.22° C | 47% | 1017.8 hPa | - | - | - | - |
| 1777758271 | 12.22° C | 47% | 1017.7 hPa | - | - | - | - |
| 1777757671 | 12.22° C | 47% | 1017.7 hPa | - | - | - | - |
| 1777757071 | 12.22° C | 49% | 1017.7 hPa | - | - | - | - |
| 1777756471 | 12.22° C | 50% | 1017.8 hPa | - | - | - | - |
| 1777755871 | 12.78° C | 49% | 1017.9 hPa | - | - | - | - |
| 1777755271 | 12.78° C | 48% | 1017.8 hPa | - | - | - | - |
* Rain since midnight (hover to see other rain measurements)
** Current wind speed in m/s (hover to see current wind gust speed)